Weather History for Spirit of St Louis, MO

Change the Weather History Date:

Friday, February 10, 2012

  Actual Average Record
Temperature  
Mean Temperature 30 °F -  
Max Temperature 39 °F 43 °F 72 °F (2009)
Min Temperature 21 °F 25 °F 3 °F (2011)
Degree Days  
Heating Degree Days 35    
Moisture  
Dew Point 26 °F    
Average Humidity 77    
Maximum Humidity 93    
Minimum Humidity 63    
Precipitation  
Precipitation 0.02 in - - ()
Sea Level Pressure  
Sea Level Pressure 30.13 in    
Wind  
Wind Speed 9 mph (West)    
Max Wind Speed 21 mph    
Max Gust Speed 30 mph    
Visibility 8 miles    
Events Rain    
Averages and records for this station are not official NWS values.
T = Trace of Precipitation, MM = Missing Value Source: NWS Daily Summary

Daily Weather History Graph

Daily Weather History Graph

Search for Another Location

Airport:

Trip Planner

Search our weather history database for the weather conditions in past years. The results will help you decide how hot, cold, wet, or windy it might be!

Date:

Astronomy

Feb. 10, 2012 Rise Set
Actual Time 6:59 AM CST 5:34 PM CST
Civil Twilight 6:32 AM CST 6:01 PM CST
Nautical Twilight 6:01 AM CST 6:33 PM CST
Astronomical Twilight 5:30 AM CST 7:04 PM CST
Moon 9:09 PM CST (2/10) 8:11 AM CST (2/10)
Length of Visible Light 11h 29m
Length of Day
10h 34m
Waning Gibbous, 90% of the Moon is Illuminated
Feb 10
Waning Gibbous
Feb 14
Last Quarter
Feb 21
New
Feb 29
First Quarter
Mar 8
Full

Hourly Weather History & Observations

Time (CST) Temp. Windchill Dew Point Humidity Pressure Visibility Wind Dir Wind Speed Gust Speed Precip Events Conditions
12:54 AM 36.0 °F 31.1 °F 28.9 °F 76% 30.16 in 10.0 mi South 5.8 mph - N/A   Overcast
1:54 AM 36.0 °F 29.6 °F 28.9 °F 76% 30.14 in 10.0 mi SSW 8.1 mph - N/A   Overcast
2:54 AM 36.0 °F 29.6 °F 28.9 °F 76% 30.12 in 10.0 mi SSW 8.1 mph - N/A   Overcast
3:54 AM 36.0 °F 31.1 °F 28.9 °F 76% 30.10 in 10.0 mi SSW 5.8 mph - N/A   Overcast
4:54 AM 36.0 °F 30.3 °F 28.9 °F 76% 30.09 in 10.0 mi SSW 6.9 mph - N/A   Overcast
5:54 AM 37.0 °F 31.0 °F 30.0 °F 76% 30.08 in 10.0 mi SW 8.1 mph - N/A   Overcast
6:26 AM 35.6 °F 30.7 °F 30.2 °F 81% 30.05 in 10.0 mi SW 5.8 mph - N/A   Overcast
6:54 AM 36.0 °F 30.3 °F 32.0 °F 86% 30.06 in 10.0 mi SSW 6.9 mph - 0.00 in   Overcast
7:15 AM 35.6 °F 30.7 °F 32.0 °F 87% 30.05 in 10.0 mi SSW 5.8 mph - N/A   Overcast
7:54 AM 37.0 °F 32.4 °F 33.1 °F 86% 30.06 in 9.0 mi SW 5.8 mph - N/A   Overcast
8:54 AM 37.0 °F 31.6 °F 33.1 °F 86% 30.07 in 7.0 mi SW 6.9 mph - N/A   Overcast
9:54 AM 37.0 °F 30.4 °F 34.0 °F 89% 30.07 in 7.0 mi WSW 9.2 mph - N/A   Overcast
10:22 AM 37.4 °F 31.4 °F 35.6 °F 93% 30.04 in 6.0 mi WSW 8.1 mph - N/A   Overcast
10:54 AM 39.0 °F 32.8 °F 35.1 °F 86% 30.05 in 6.0 mi SW 9.2 mph - N/A   Overcast
11:26 AM 39.2 °F 33.0 °F 35.6 °F 87% 30.02 in 6.0 mi SW 9.2 mph - N/A   Overcast
11:54 AM 39.9 °F 32.9 °F 36.0 °F 86% 30.03 in 6.0 mi WSW 11.5 mph - N/A   Overcast
12:54 PM 39.9 °F 33.4 °F 36.0 °F 86% 30.01 in 5.0 mi WSW 10.4 mph - N/A   Overcast
1:54 PM 39.0 °F 33.4 °F 37.0 °F 93% 30.00 in 2.5 mi West 8.1 mph - 0.01 in Rain Light Rain
2:18 PM 37.4 °F 26.9 °F 33.8 °F 87% 30.00 in 2.5 mi NW 20.7 mph 27.6 mph 0.01 in Rain Light Rain
2:54 PM 34.0 °F 23.0 °F 30.0 °F 85% 30.05 in 2.5 mi NNW 18.4 mph 29.9 mph 0.01 in   Overcast
3:54 PM 32.0 °F 21.6 °F 25.0 °F 75% 30.10 in 10.0 mi NW 15.0 mph 18.4 mph 0.00 in   Overcast
4:54 PM 30.9 °F 19.8 °F 21.0 °F 67% 30.12 in 10.0 mi NW 16.1 mph 26.5 mph N/A   Overcast
5:54 PM 28.9 °F 18.2 °F 19.0 °F 67% 30.17 in 10.0 mi NW 13.8 mph 21.9 mph N/A   Mostly Cloudy
6:54 PM 28.0 °F 15.7 °F 17.1 °F 63% 30.21 in 10.0 mi NW 17.3 mph 29.9 mph N/A   Overcast
7:54 PM 25.0 °F 12.2 °F 14.0 °F 63% 30.25 in 10.0 mi NNW 16.1 mph 28.8 mph N/A   Overcast
8:54 PM 23.0 °F 11.7 °F 14.0 °F 68% 30.29 in 10.0 mi NNW 11.5 mph 20.7 mph N/A   Mostly Cloudy
8:58 PM 23.0 °F 11.7 °F 12.2 °F 63% 30.26 in 10.0 mi NW 11.5 mph - N/A   Mostly Cloudy
9:25 PM 23.0 °F 10.1 °F 12.2 °F 63% 30.27 in 10.0 mi NNW 15.0 mph - N/A   Overcast
9:54 PM 21.9 °F 8.7 °F 12.0 °F 66% 30.32 in 10.0 mi NNW 15.0 mph 20.7 mph N/A   Mostly Cloudy
10:06 PM 21.2 °F 9.5 °F 12.2 °F 68% 30.29 in 10.0 mi NNW 11.5 mph 20.7 mph N/A   Mostly Cloudy
10:54 PM 21.9 °F 10.4 °F 12.0 °F 66% 30.33 in 10.0 mi NW 11.5 mph 19.6 mph N/A   Overcast
11:54 PM 21.9 °F 6.9 °F 12.0 °F 66% 30.34 in 10.0 mi NW 19.6 mph 25.3 mph N/A   Overcast